Content
SEND FEEDBACK

Daily
Averages
Monthly
Summary
United States of America

VERNON, VERMONT


Home > North America > United States > Vermont
Elevation: 238 feet     Latitude: 42 46N     Longitude: 072 31W

WEATHER
 
SELECT A DAY
Number of Records: 451,421;   Date Range: 1/1/95 - 9/30/14
 
SHARE

PRINT THIS DATA

[ ← Previous Day ]
WEATHER ALMANAC - APRIL 7, 2014
[ Next Day → ]
[ °C ]   °F
Weather ElementAverageHighLow
Temperature42.9 °F59 °F (12:15 pm)26.6 °F (5:55 am)
Dewpoint22.4 °F35.6 °F (11:55 pm)15.8 °F (8:55 pm)
Humidity49.5 %80 % (5:55 am)25 % (12:15 pm)
Barometer30.12 in30.23 in (8:15 am)29.87 in (11:55 pm)
Wind Speed4.2 mph15 mph (1:15 pm)
Wind Gust20.7 mph (12:35 pm)
Weather ElementAverage
Visibility9.9 mi
Wind DirectionE (89.6 °)

Weather ElementTotal
Precipitation0.11 in
Heating Degree Days22.2 (Base 65)
Averaged from 70 records on April 7, 2014
WEATHER CONDITIONS BREAKOUT
WIND DIRECTION BREAKOUT
WEATHER BY HOUR - APRIL 7, 2014
[ °C ]   °F
Local TimeTemperatureDewpointHumidityBarometerVisibilityWind DirectionWind SpeedGust SpeedPrecipitationEventsConditions
12:35 AM30.2 °F21.2 °F69 %30.20 in10.0 miCalmClear
12:55 AM28.4 °F19.4 °F69 %30.20 in10.0 miCalmClear
1:15 AM28.4 °F21.2 °F74 %30.18 in10.0 miNNE (30°)3.5 mphClear
1:35 AM30.2 °F21.2 °F69 %30.19 in10.0 miCalmClear
1:55 AM30.2 °F21.2 °F69 %30.19 in10.0 miCalmClear
2:15 AM28.4 °F19.4 °F69 %30.20 in10.0 miCalmClear
2:35 AM28.4 °F21.2 °F74 %30.19 in10.0 miCalmClear
2:55 AM28.4 °F19.4 °F69 %30.19 in10.0 miSSW (200°)3.5 mphClear
3:15 AM28.4 °F21.2 °F74 %30.19 in10.0 miCalmClear
3:35 AM28.4 °F21.2 °F74 %30.20 in10.0 miCalmClear
3:55 AM28.4 °F21.2 °F74 %30.20 in10.0 miCalmClear
4:15 AM28.4 °F21.2 °F74 %30.20 in10.0 miCalmClear
4:35 AM28.4 °F21.2 °F74 %30.20 in10.0 miCalmClear
4:55 AM28.4 °F21.2 °F74 %30.19 in10.0 miCalmClear
5:15 AM28.4 °F21.2 °F74 %30.19 in10.0 miCalmClear
5:35 AM28.4 °F21.2 °F74 %30.19 in10.0 miCalmClear
5:55 AM26.6 °F21.2 °F80 %30.20 in10.0 miSouth (180°)4.6 mphClear
6:15 AM26.6 °F19.4 °F74 %30.21 in10.0 miCalmClear
6:35 AM26.6 °F19.4 °F74 %30.21 in10.0 miSSW (210°)3.5 mphClear
6:55 AM26.6 °F19.4 °F74 %30.20 in10.0 miCalmClear
7:15 AM26.6 °F19.4 °F74 %30.21 in10.0 miSouth (190°)4.6 mphClear
7:35 AM28.4 °F21.2 °F74 %30.21 in10.0 miCalmClear
7:55 AM30.2 °F23.0 °F75 %30.22 in10.0 miCalmClear
8:15 AM32.0 °F24.8 °F75 %30.23 in10.0 miCalmClear
8:35 AM33.8 °F23.0 °F65 %30.23 in10.0 miCalmClear
8:55 AM35.6 °F24.8 °F65 %30.23 in10.0 miCalmClear
9:15 AM37.4 °F24.8 °F60 %30.23 in10.0 miCalmClear
9:35 AM39.2 °F24.8 °F56 %30.23 in10.0 miCalmClear
9:55 AM42.8 °F24.8 °F49 %30.22 in10.0 miCalmClear
10:15 AM44.6 °F24.8 °F46 %30.21 in10.0 miCalmClear
10:35 AM46.4 °F26.6 °F46 %30.20 in10.0 miCalmClear
10:55 AM48.2 °F26.6 °F43 %30.19 in10.0 miCalmClear
11:15 AM51.8 °F26.6 °F38 %30.19 in10.0 miCalmClear
11:35 AM55.4 °F26.6 °F33 %30.18 in10.0 miSSW (210°)5.8 mphClear
11:55 AM57.2 °F24.8 °F29 %30.17 in10.0 miSouth (180°)12.7 mph17.3 mphClear
12:15 PM59.0 °F23.0 °F25 %30.17 in10.0 miSouth (190°)13.8 mph18.4 mphClear
12:35 PM57.2 °F21.2 °F25 %30.17 in10.0 miSW (220°)12.7 mph20.7 mphClear
12:55 PM57.2 °F23.0 °F27 %30.17 in10.0 miSSW (200°)13.8 mphClear
1:15 PM57.2 °F21.2 °F25 %30.16 in10.0 miSSW (200°)15.0 mph19.6 mphClear
1:35 PM57.2 °F23.0 °F27 %30.14 in10.0 miSSW (200°)8.1 mphClear
1:55 PM57.2 °F23.0 °F27 %30.13 in10.0 miSouth (180°)12.7 mphClear
2:15 PM57.2 °F23.0 °F27 %30.12 in10.0 miSSW (200°)11.5 mphClear
2:35 PM57.2 °F23.0 °F27 %30.09 in10.0 miSSW (200°)6.9 mphClear
2:55 PM57.2 °F23.0 °F27 %30.08 in10.0 miSouth (180°)15.0 mph20.7 mphClear
3:15 PM57.2 °F21.2 °F25 %30.07 in10.0 miSSE (160°)12.7 mph20.7 mphClear
3:35 PM57.2 °F21.2 °F25 %30.08 in10.0 miSouth (170°)11.5 mph20.7 mphClear
4:15 PM57.2 °F21.2 °F25 %30.08 in10.0 miSSW (200°)8.1 mphClear
4:35 PM55.4 °F21.2 °F26 %30.08 in10.0 miSouth (190°)11.5 mphScattered Clouds
4:55 PM55.4 °F21.2 °F26 %30.09 in10.0 miSouth (180°)8.1 mphPartly Cloudy
5:15 PM55.4 °F21.2 °F26 %30.06 in10.0 miCalmScattered Clouds
5:35 PM55.4 °F19.4 °F25 %30.05 in10.0 miSW (220°)8.1 mphMostly Cloudy
5:55 PM53.6 °F21.2 °F28 %30.05 in10.0 miSouth (180°)8.1 mphMostly Cloudy
6:15 PM53.6 °F19.4 °F26 %30.06 in10.0 miSouth (190°)5.8 mphMostly Cloudy
6:35 PM51.8 °F21.2 °F30 %30.05 in10.0 miSouth (180°)5.8 mphScattered Clouds
6:55 PM51.8 °F21.2 °F30 %30.04 in10.0 miCalmPartly Cloudy
7:15 PM51.8 °F19.4 °F28 %30.02 in10.0 miSSW (200°)5.8 mphMostly Cloudy
7:35 PM51.8 °F21.2 °F30 %30.02 in10.0 miSouth (170°)6.9 mphMostly Cloudy
7:55 PM51.8 °F19.4 °F28 %30.01 in10.0 miCalmOvercast
8:15 PM50.0 °F19.4 °F30 %30.01 in10.0 miSouth (170°)3.5 mphMostly Cloudy
8:35 PM50.0 °F17.6 °F28 %29.99 in10.0 miESE (110°)6.9 mphOvercast
8:55 PM48.2 °F15.8 °F27 %30.00 in10.0 miSouth (170°)8.1 mphOvercast
9:15 PM48.2 °F15.8 °F27 %29.98 in10.0 miEast (80°)5.8 mphMostly Cloudy
9:35 PM48.2 °F15.8 °F27 %29.98 in10.0 miSouth (170°)8.1 mphOvercast
9:55 PM48.2 °F19.4 °F32 %29.99 in10.0 miSouth (180°)9.2 mphOvercast
10:15 PM44.6 °F26.6 °F49 %29.97 in10.0 miCalmOvercast
10:35 PM42.8 °F30.2 °F61 %29.95 in10.0 miCalmOvercast
10:55 PM42.8 °F33.8 °F70 %29.93 in8.0 miCalm0.02 inOvercast
11:15 PM42.8 °F32.0 °F66 %29.92 in10.0 miSSE (160°)3.5 mph0.01 inOvercast
11:35 PM42.8 °F33.8 °F70 %29.90 in7.0 miSE (130°)4.6 mph0.04 inOvercast
11:55 PM42.8 °F35.6 °F76 %29.87 in9.0 miEast (90°)3.5 mph0.04 inOvercast
Hourly data recorded from KEEN, located miles away from Vernon, Vermont







STORIES FROM OUR PARTNERS